This is the latest recevied weather packets stored in our database for station/object DL1NER. If no packets are shown the sender has not sent any weather packets the latest 10 day(s).
| Time | Temp. | Humidity | Pressure | Rain* | Wind** | Luminosity | Snow |
|---|---|---|---|---|---|---|---|
| 1777131010 | 21.11° C | 29% | 1015.9 hPa | 0 mm | - | 0 W/m² | - |
| 1777129809 | 21.67° C | 25% | 1016 hPa | 0 mm | - | 0 W/m² | - |
| 1777129210 | 21.11° C | 28% | 1016 hPa | 0 mm | - | 0 W/m² | - |
| 1777128610 | 21.11° C | 28% | 1016 hPa | 0 mm | - | 0 W/m² | - |
| 1777128009 | 21.67° C | 23% | 1016.1 hPa | 0 mm | - | 0 W/m² | - |
| 1777127409 | 21.11° C | 25% | 1016.1 hPa | 0 mm | - | 0 W/m² | - |
| 1777126814 | 21.11° C | 25% | 1016.1 hPa | 0 mm | - | 0 W/m² | - |
| 1777126214 | 21.11° C | 28% | 1016.2 hPa | 0 mm | - | 0 W/m² | - |
| 1777125614 | 21.11° C | 25% | 1016.4 hPa | 0 mm | - | 0 W/m² | - |
| 1777125014 | 21.67° C | 25% | 1016.3 hPa | 0 mm | - | 0 W/m² | - |
| 1777124414 | 21.11° C | 28% | 1016.5 hPa | 0 mm | - | 0 W/m² | - |
| 1777123814 | 21.11° C | 33% | 1016.5 hPa | 0 mm | - | 0 W/m² | - |
| 1777123214 | 20.56° C | 27% | 1016.6 hPa | 0 mm | - | 0 W/m² | - |
| 1777122614 | 20.56° C | 30% | 1016.6 hPa | 0 mm | - | 0 W/m² | - |
| 1777122014 | 20° C | 28% | 1016.7 hPa | 0 mm | - | 0 W/m² | - |
| 1777121413 | 20.56° C | 26% | 1016.7 hPa | 0 mm | - | 0 W/m² | - |
| 1777120814 | 20.56° C | 30% | 1016.8 hPa | 0 mm | - | 0 W/m² | - |
| 1777120213 | 20° C | 30% | 1016.8 hPa | 0 mm | - | 0 W/m² | - |
| 1777119613 | 20° C | 30% | 1016.8 hPa | 0 mm | - | 0 W/m² | - |
| 1777119013 | 20° C | 30% | 1016.9 hPa | 0 mm | - | 0 W/m² | - |
| 1777118413 | 20.56° C | 28% | 1017 hPa | 0 mm | - | 0 W/m² | - |
| 1777117813 | 20.56° C | 30% | 1017.1 hPa | 0 mm | - | 0 W/m² | - |
| 1777117213 | 20.56° C | 32% | 1017.2 hPa | 0 mm | - | 0 W/m² | - |
| 1777116613 | 20° C | 32% | 1017.4 hPa | 0 mm | - | 0 W/m² | - |
| 1777116013 | 20° C | 30% | 1017.5 hPa | 0 mm | - | 0 W/m² | - |
* Rain latest hour (hover to see other rain measurements)
** Current wind speed in m/s (hover to see current wind gust speed)